DAL180 KSAN-KSFO

Flight info

Callsign DAL180
Flight time N/A
Altitude 34000
Route ECHHO2 IKAYE RIZIN SPLNT STOKD SERFR SERFR4
Aircraft B739/M-SDE2E3FGHIRWXY/LB1

Departure

Time 2026-04-24 23:09
Airport San Diego International Airport (KSAN)

Arrival

Time N/A
Airport San Francisco International Airport (KSFO)
Time Latitude Longitude Altitude Speed Heading
2026-04-24 23:03 32.72957 -117.17681 19 ft 0 kts 98°
2026-04-24 23:06 32.72959 -117.17657 21 ft 4 kts 81°
2026-04-24 23:07 32.72964 -117.17623 21 ft 4 kts 81°
2026-04-24 23:07 32.72971 -117.17589 22 ft 5 kts 67°
2026-04-24 23:07 32.72993 -117.17556 24 ft 5 kts 35°
2026-04-24 23:07 32.73021 -117.17576 22 ft 5 kts 281°
2026-04-24 23:08 32.73038 -117.17655 20 ft 27 kts 286°
2026-04-24 23:08 32.73165 -117.18173 24 ft 103 kts 286°
2026-04-24 23:08 32.73428 -117.19253 25 ft 163 kts 286°
2026-04-24 23:08 32.73757 -117.20609 550 ft 174 kts 284°
2026-04-24 23:09 32.74106 -117.21987 1363 ft 178 kts 285°
2026-04-24 23:09 32.74433 -117.23371 2309 ft 166 kts 283°
2026-04-24 23:09 32.74741 -117.24626 3105 ft 158 kts 287°
2026-04-24 23:09 32.75176 -117.25934 3303 ft 183 kts 291°
2026-04-24 23:10 32.75675 -117.27391 3668 ft 190 kts 291°
2026-04-24 23:10 32.76171 -117.28841 4205 ft 193 kts 297°
2026-04-24 23:10 32.76921 -117.30129 4840 ft 185 kts 307°
2026-04-24 23:10 32.77706 -117.31260 5552 ft 176 kts 310°
2026-04-24 23:11 32.78545 -117.32397 5859 ft 189 kts 311°
2026-04-24 23:11 32.79491 -117.33532 6212 ft 199 kts 319°
2026-04-24 23:11 32.80568 -117.34637 6495 ft 213 kts 318°
2026-04-24 23:11 32.81738 -117.35881 6597 ft 238 kts 315°
2026-04-24 23:12 32.82965 -117.37312 6800 ft 259 kts 313°
2026-04-24 23:12 32.84218 -117.38912 7230 ft 269 kts 310°
2026-04-24 23:12 32.85450 -117.40602 7612 ft 272 kts 309°
2026-04-24 23:12 32.86663 -117.42352 8005 ft 275 kts 307°
2026-04-24 23:13 32.87857 -117.44132 8399 ft 275 kts 307°
2026-04-24 23:13 32.89035 -117.45929 8796 ft 275 kts 306°
2026-04-24 23:13 32.90200 -117.47727 9260 ft 272 kts 306°
2026-04-24 23:13 32.91353 -117.49516 9780 ft 274 kts 305°
2026-04-24 23:14 32.92521 -117.51333 10268 ft 279 kts 305°
2026-04-24 23:14 32.93707 -117.53180 10750 ft 281 kts 305°
2026-04-24 23:14 32.94894 -117.55028 11224 ft 280 kts 305°
2026-04-24 23:14 32.96077 -117.56873 11713 ft 280 kts 304°
2026-04-24 23:15 32.97256 -117.58711 12206 ft 279 kts 304°
2026-04-24 23:15 32.98420 -117.60527 12705 ft 279 kts 304°
2026-04-24 23:15 32.99604 -117.62377 13230 ft 283 kts 304°
2026-04-24 23:15 33.00825 -117.64286 13766 ft 289 kts 304°
2026-04-24 23:16 33.02038 -117.66183 14234 ft 294 kts 304°
2026-04-24 23:16 33.03292 -117.68144 14611 ft 303 kts 304°
2026-04-24 23:16 33.04595 -117.70185 14881 ft 315 kts 304°
2026-04-24 23:16 33.05948 -117.72302 15162 ft 327 kts 304°
2026-04-24 23:17 33.07519 -117.74346 15434 ft 341 kts 314°
2026-04-24 23:17 33.09362 -117.76223 15719 ft 353 kts 317°
2026-04-24 23:17 33.11298 -117.78090 15995 ft 362 kts 317°
2026-04-24 23:17 33.13278 -117.80015 16285 ft 371 kts 316°
2026-04-24 23:18 33.15277 -117.82007 16569 ft 378 kts 316°
2026-04-24 23:18 33.17267 -117.84024 16848 ft 384 kts 315°
2026-04-24 23:18 33.19315 -117.86116 17139 ft 390 kts 315°
2026-04-24 23:18 33.21323 -117.88319 17426 ft 394 kts 312°
2026-04-24 23:19 33.23279 -117.90633 17717 ft 398 kts 311°
2026-04-24 23:19 33.25229 -117.93000 18010 ft 402 kts 310°
2026-04-24 23:19 33.27194 -117.95396 18298 ft 406 kts 310°
2026-04-24 23:19 33.29183 -117.97813 18552 ft 409 kts 310°
2026-04-24 23:20 33.31187 -118.00234 18808 ft 412 kts 311°
2026-04-24 23:20 33.33197 -118.02657 18930 ft 417 kts 311°
2026-04-24 23:20 33.35253 -118.05140 18940 ft 419 kts 311°
2026-04-24 23:20 33.37299 -118.07608 18931 ft 415 kts 311°
2026-04-24 23:21 33.39328 -118.10058 18943 ft 414 kts 310°
2026-04-24 23:21 33.41360 -118.12509 18952 ft 416 kts 310°
2026-04-24 23:21 33.43395 -118.14962 18941 ft 411 kts 311°
2026-04-24 23:21 33.45368 -118.17333 18930 ft 393 kts 311°
2026-04-24 23:22 33.47186 -118.19655 18927 ft 369 kts 302°
2026-04-24 23:22 33.48561 -118.22101 18944 ft 350 kts 303°
2026-04-24 23:22 33.50333 -118.24043 18953 ft 344 kts 324°
2026-04-24 23:22 33.52564 -118.25022 18944 ft 344 kts 346°
2026-04-24 23:23 33.54995 -118.24983 18969 ft 356 kts
2026-04-24 23:23 33.57468 -118.24507 18952 ft 361 kts
2026-04-24 23:23 33.59947 -118.23954 18935 ft 363 kts
2026-04-24 23:23 33.62431 -118.23382 18929 ft 367 kts